Time,TemperatureF,DewpointF,PressureIn,WindDirection,WindDirectionDegrees,WindSpeedMPH,WindSpeedGustMPH,Humidity,HourlyPrecipIn,Conditions,Clouds,dailyrainin,SoftwareType,DateUTC
2013-02-06 00:02:00,29.0,28.0,-100.00,WSW,250,5.0,9.0,96,-99.99,,,-99.99,,2013-02-06 05:02:00,
2013-02-06 00:12:00,29.0,28.0,-100.00,WSW,245,6.0,9.0,96,-99.99,,,-99.99,,2013-02-06 05:12:00,
2013-02-06 00:22:00,29.0,28.0,-100.00,WSW,250,5.0,12.0,96,-99.99,,,-99.99,,2013-02-06 05:22:00,
2013-02-06 00:32:00,29.0,28.0,-100.00,WSW,240,5.0,9.0,97,-99.99,,,-99.99,,2013-02-06 05:32:00,
2013-02-06 00:41:00,29.0,29.0,-100.00,WSW,255,7.0,11.0,97,-99.99,,,-99.99,,2013-02-06 05:41:00,
2013-02-06 00:53:00,29.0,29.0,-100.00,WSW,240,7.0,12.0,97,-99.99,,,-99.99,,2013-02-06 05:53:00,
2013-02-06 01:01:00,29.0,29.0,-100.00,WSW,255,5.0,10.0,97,-99.99,,,-99.99,,2013-02-06 06:01:00,
2013-02-06 01:11:00,29.0,29.0,-100.00,WSW,245,4.0,12.0,97,-99.99,,,-99.99,,2013-02-06 06:11:00,
2013-02-06 01:21:00,29.0,29.0,-100.00,SW,230,6.0,10.0,97,-99.99,,,-99.99,,2013-02-06 06:21:00,
2013-02-06 01:32:00,29.0,29.0,-100.00,WSW,255,4.0,8.0,97,-99.99,,,-99.99,,2013-02-06 06:32:00,
2013-02-06 01:42:00,29.0,29.0,-100.00,WSW,245,6.0,9.0,97,-99.99,,,-99.99,,2013-02-06 06:42:00,
2013-02-06 01:51:00,29.0,29.0,-100.00,SW,230,6.0,9.0,97,-99.99,,,-99.99,,2013-02-06 06:51:00,
2013-02-06 02:02:00,29.0,29.0,-100.00,West,260,4.0,8.0,97,-99.99,,,-99.99,,2013-02-06 07:02:00,
2013-02-06 02:11:00,29.0,29.0,-100.00,SW,235,4.0,7.0,97,-99.99,,,-99.99,,2013-02-06 07:11:00,
2013-02-06 02:22:00,29.0,29.0,-100.00,WSW,250,5.0,8.0,97,-99.99,,,-99.99,,2013-02-06 07:22:00,
2013-02-06 02:32:00,30.0,29.0,-100.00,WSW,250,6.0,10.0,98,-99.99,,,-99.99,,2013-02-06 07:32:00,
2013-02-06 02:42:00,30.0,29.0,-100.00,SW,235,6.0,11.0,98,-99.99,,,-99.99,,2013-02-06 07:42:00,
2013-02-06 02:51:00,30.0,29.0,-100.00,WSW,255,6.0,11.0,98,-99.99,,,-99.99,,2013-02-06 07:51:00,
2013-02-06 03:01:00,30.0,30.0,-100.00,West,265,7.0,11.0,98,-99.99,,,-99.99,,2013-02-06 08:01:00,
2013-02-06 03:11:00,30.0,30.0,-100.00,West,270,7.0,10.0,98,-99.99,,,-99.99,,2013-02-06 08:11:00,
2013-02-06 03:21:00,30.0,30.0,-100.00,WNW,290,11.0,14.0,98,-99.99,,,-99.99,,2013-02-06 08:21:00,
2013-02-06 03:32:00,30.0,30.0,-100.00,West,265,9.0,13.0,98,-99.99,,,-99.99,,2013-02-06 08:32:00,
2013-02-06 03:42:00,30.0,30.0,-100.00,WNW,285,9.0,16.0,98,-99.99,,,-99.99,,2013-02-06 08:42:00,
2013-02-06 03:53:00,30.0,30.0,-100.00,WNW,290,6.0,15.0,98,-99.99,,,-99.99,,2013-02-06 08:53:00,
2013-02-06 04:02:00,31.0,30.0,-100.00,West,270,6.0,11.0,98,-99.99,,,-99.99,,2013-02-06 09:02:00,
2013-02-06 04:11:00,30.0,30.0,-100.00,NW,310,6.0,20.0,98,-99.99,,,-99.99,,2013-02-06 09:11:00,
2013-02-06 04:21:00,30.0,30.0,-100.00,West,265,6.0,14.0,98,-99.99,,,-99.99,,2013-02-06 09:21:00,
2013-02-06 04:32:00,30.0,29.0,-100.00,WNW,290,7.0,17.0,97,-99.99,,,-99.99,,2013-02-06 09:32:00,
2013-02-06 04:42:00,30.0,29.0,-100.00,West,270,8.0,19.0,97,-99.99,,,-99.99,,2013-02-06 09:42:00,
2013-02-06 04:52:00,29.0,29.0,-100.00,WNW,295,10.0,18.0,97,-99.99,,,-99.99,,2013-02-06 09:52:00,
2013-02-06 05:01:00,29.0,28.0,-100.00,NW,310,11.0,20.0,97,-99.99,,,-99.99,,2013-02-06 10:01:00,
2013-02-06 05:11:00,29.0,28.0,-100.00,NW,310,11.0,20.0,97,-99.99,,,-99.99,,2013-02-06 10:11:00,
2013-02-06 05:21:00,27.0,27.0,-100.00,NNW,345,11.0,18.0,98,-99.99,,,-99.99,,2013-02-06 10:21:00,
2013-02-06 05:32:00,27.0,26.0,-100.00,North,350,10.0,19.0,97,-99.99,,,-99.99,,2013-02-06 10:32:00,
2013-02-06 05:42:00,27.0,26.0,-100.00,North,350,10.0,19.0,97,-99.99,,,-99.99,,2013-02-06 10:42:00,
2013-02-06 05:52:00,26.0,26.0,-100.00,NW,315,6.0,17.0,97,-99.99,,,-99.99,,2013-02-06 10:52:00,
2013-02-06 06:01:00,26.0,25.0,-100.00,NW,305,9.0,15.0,97,-99.99,,,-99.99,,2013-02-06 11:01:00,
2013-02-06 06:11:00,26.0,25.0,-100.00,NW,320,6.0,15.0,97,-99.99,,,-99.99,,2013-02-06 11:11:00,
2013-02-06 06:22:00,26.0,25.0,-100.00,NNW,345,7.0,14.0,97,-99.99,,,-99.99,,2013-02-06 11:22:00,
2013-02-06 06:32:00,26.0,25.0,-100.00,NW,305,6.0,12.0,97,-99.99,,,-99.99,,2013-02-06 11:32:00,
2013-02-06 06:42:00,26.0,25.0,-100.00,WNW,290,8.0,12.0,97,-99.99,,,-99.99,,2013-02-06 11:42:00,
2013-02-06 06:52:00,26.0,25.0,-100.00,West,280,6.0,12.0,97,-99.99,,,-99.99,,2013-02-06 11:52:00,
2013-02-06 07:02:00,26.0,25.0,-100.00,WNW,295,7.0,11.0,97,-99.99,,,-99.99,,2013-02-06 12:02:00,
2013-02-06 07:12:00,26.0,25.0,-100.00,NW,305,2.0,10.0,97,-99.99,,,-99.99,,2013-02-06 12:12:00,
2013-02-06 07:22:00,25.0,24.0,-100.00,North,350,6.0,14.0,96,-99.99,,,-99.99,,2013-02-06 12:22:00,
2013-02-06 07:32:00,24.0,24.0,-100.00,North,355,8.0,15.0,96,-99.99,,,-99.99,,2013-02-06 12:32:00,
2013-02-06 07:42:00,25.0,24.0,-100.00,North,0,9.0,16.0,96,-99.99,,,-99.99,,2013-02-06 12:42:00,
2013-02-06 07:52:00,25.0,24.0,-100.00,NNW,340,9.0,16.0,95,-99.99,,,-99.99,,2013-02-06 12:52:00,
2013-02-06 08:02:00,24.0,23.0,-100.00,North,350,7.0,14.0,94,-99.99,,,-99.99,,2013-02-06 13:02:00,
2013-02-06 08:12:00,24.0,22.0,-100.00,NNW,330,7.0,14.0,92,-99.99,,,-99.99,,2013-02-06 13:12:00,
2013-02-06 08:22:00,24.0,22.0,-100.00,NNW,335,9.0,14.0,89,-99.99,,,-99.99,,2013-02-06 13:22:00,
2013-02-06 08:32:00,24.0,22.0,-100.00,NNW,335,9.0,14.0,89,-99.99,,,-99.99,,2013-02-06 13:32:00,
2013-02-06 08:42:00,24.0,21.0,-100.00,North,0,6.0,12.0,87,-99.99,,,-99.99,,2013-02-06 13:42:00,
2013-02-06 08:52:00,25.0,21.0,-100.00,NW,325,7.0,12.0,87,-99.99,,,-99.99,,2013-02-06 13:52:00,
2013-02-06 09:02:00,25.0,21.0,-100.00,NNW,330,7.0,11.0,87,-99.99,,,-99.99,,2013-02-06 14:02:00,
2013-02-06 09:11:00,25.0,21.0,-100.00,North,5,6.0,11.0,86,-99.99,,,-99.99,,2013-02-06 14:11:00,
2013-02-06 09:22:00,25.0,21.0,-100.00,North,350,6.0,10.0,85,-99.99,,,-99.99,,2013-02-06 14:22:00,
2013-02-06 09:32:00,25.0,21.0,-100.00,NNW,330,7.0,13.0,84,-99.99,,,-99.99,,2013-02-06 14:32:00,
2013-02-06 09:42:00,25.0,21.0,-100.00,NW,325,4.0,9.0,83,-99.99,,,-99.99,,2013-02-06 14:42:00,
2013-02-06 09:52:00,26.0,22.0,-100.00,NNW,335,2.0,7.0,83,-99.99,,,-99.99,,2013-02-06 14:52:00,
2013-02-06 10:02:00,27.0,22.0,-100.00,North,350,3.0,6.0,82,-99.99,,,-99.99,,2013-02-06 15:02:00,
2013-02-06 10:11:00,27.0,22.0,-100.00,North,5,2.0,6.0,81,-99.99,,,-99.99,,2013-02-06 15:11:00,
2013-02-06 10:21:00,28.0,23.0,-100.00,North,350,2.0,6.0,81,-99.99,,,-99.99,,2013-02-06 15:21:00,
2013-02-06 10:32:00,28.0,23.0,-100.00,North,0,3.0,7.0,80,-99.99,,,-99.99,,2013-02-06 15:32:00,
2013-02-06 10:42:00,28.0,23.0,-100.00,NW,315,3.0,6.0,80,-99.99,,,-99.99,,2013-02-06 15:42:00,
2013-02-06 10:52:00,28.0,23.0,-100.00,NW,315,3.0,6.0,80,-99.99,,,-99.99,,2013-02-06 15:52:00,
2013-02-06 11:01:00,29.0,23.0,-100.00,NE,35,2.0,4.0,79,-99.99,,,-99.99,,2013-02-06 16:01:00,
2013-02-06 11:11:00,30.0,23.0,-100.00,NNE,25,3.0,6.0,76,-99.99,,,-99.99,,2013-02-06 16:11:00,
2013-02-06 11:21:00,30.0,23.0,-100.00,North,0,1.0,7.0,74,-99.99,,,-99.99,,2013-02-06 16:21:00,
2013-02-06 11:32:00,31.0,23.0,-100.00,NW,325,2.0,7.0,72,-99.99,,,-99.99,,2013-02-06 16:32:00,
2013-02-06 11:42:00,31.0,23.0,-100.00,NW,305,1.0,6.0,70,-99.99,,,-99.99,,2013-02-06 16:42:00,
2013-02-06 11:52:00,31.0,22.0,-100.00,NNE,25,4.0,6.0,67,-99.99,,,-99.99,,2013-02-06 16:52:00,
2013-02-06 12:02:00,31.0,21.0,-100.00,NNW,335,4.0,9.0,66,-99.99,,,-99.99,,2013-02-06 17:02:00,
2013-02-06 12:11:00,31.0,21.0,-100.00,NNE,30,2.0,7.0,65,-99.99,,,-99.99,,2013-02-06 17:11:00,
2013-02-06 12:22:00,32.0,21.0,-100.00,WNW,285,4.0,6.0,63,-99.99,,,-99.99,,2013-02-06 17:22:00,
2013-02-06 12:32:00,33.0,21.0,-100.00,NNW,340,1.0,6.0,62,-99.99,,,-99.99,,2013-02-06 17:32:00,
2013-02-06 12:42:00,32.0,21.0,-100.00,West,280,3.0,7.0,61,-99.99,,,-99.99,,2013-02-06 17:42:00,
2013-02-06 12:52:00,32.0,20.0,-100.00,NW,310,2.0,7.0,61,-99.99,,,-99.99,,2013-02-06 17:52:00,
2013-02-06 13:02:00,33.0,21.0,-100.00,NW,315,4.0,8.0,60,-99.99,,,-99.99,,2013-02-06 18:02:00,
2013-02-06 13:11:00,33.0,21.0,-100.00,NW,315,4.0,8.0,60,-99.99,,,-99.99,,2013-02-06 18:11:00,
2013-02-06 13:23:00,32.0,20.0,-100.00,NW,315,2.0,8.0,59,-99.99,,,-99.99,,2013-02-06 18:23:00,
2013-02-06 13:32:00,33.0,20.0,-100.00,NW,320,3.0,7.0,59,-99.99,,,-99.99,,2013-02-06 18:32:00,
2013-02-06 13:42:00,33.0,21.0,-100.00,North,0,2.0,6.0,60,-99.99,,,-99.99,,2013-02-06 18:42:00,
2013-02-06 13:52:00,33.0,21.0,-100.00,North,0,2.0,6.0,60,-99.99,,,-99.99,,2013-02-06 18:52:00,
2013-02-06 14:02:00,32.0,19.0,-100.00,WNW,300,4.0,8.0,58,-99.99,,,-99.99,,2013-02-06 19:02:00,
2013-02-06 14:11:00,32.0,19.0,-100.00,NW,325,4.0,6.0,59,-99.99,,,-99.99,,2013-02-06 19:11:00,
2013-02-06 14:21:00,31.0,19.0,-100.00,North,0,3.0,7.0,59,-99.99,,,-99.99,,2013-02-06 19:21:00,
2013-02-06 14:32:00,31.0,19.0,-100.00,NW,310,4.0,7.0,60,-99.99,,,-99.99,,2013-02-06 19:32:00,
2013-02-06 14:42:00,31.0,19.0,-100.00,West,270,3.0,6.0,60,-99.99,,,-99.99,,2013-02-06 19:42:00,
2013-02-06 14:52:00,31.0,19.0,-100.00,NNE,20,3.0,7.0,60,-99.99,,,-99.99,,2013-02-06 19:52:00,
2013-02-06 15:01:00,31.0,19.0,-100.00,WNW,295,2.0,5.0,58,-99.99,,,-99.99,,2013-02-06 20:01:00,
2013-02-06 15:11:00,32.0,19.0,-100.00,SW,215,1.0,6.0,58,-99.99,,,-99.99,,2013-02-06 20:11:00,
2013-02-06 15:21:00,32.0,19.0,-100.00,WSW,250,1.0,3.0,58,-99.99,,,-99.99,,2013-02-06 20:21:00,
2013-02-06 15:32:00,31.0,19.0,-100.00,North,0,2.0,6.0,58,-99.99,,,-99.99,,2013-02-06 20:32:00,
2013-02-06 15:42:00,32.0,19.0,-100.00,NW,310,2.0,4.0,57,-99.99,,,-99.99,,2013-02-06 20:42:00,
2013-02-06 15:52:00,32.0,19.0,-100.00,North,5,2.0,4.0,58,-99.99,,,-99.99,,2013-02-06 20:52:00,
2013-02-06 16:02:00,31.0,19.0,-100.00,NNW,335,1.0,4.0,58,-99.99,,,-99.99,,2013-02-06 21:02:00,
2013-02-06 16:11:00,31.0,18.0,-100.00,NE,50,2.0,4.0,59,-99.99,,,-99.99,,2013-02-06 21:11:00,
2013-02-06 16:21:00,30.0,18.0,-100.00,NNE,15,3.0,6.0,59,-99.99,,,-99.99,,2013-02-06 21:21:00,
2013-02-06 16:32:00,30.0,18.0,-100.00,NE,45,2.0,4.0,60,-99.99,,,-99.99,,2013-02-06 21:32:00,
2013-02-06 16:42:00,31.0,19.0,-100.00,NE,50,1.0,4.0,59,-99.99,,,-99.99,,2013-02-06 21:42:00,
2013-02-06 16:51:00,31.0,19.0,-100.00,North,350,0.0,2.0,59,-99.99,,,-99.99,,2013-02-06 21:51:00,
2013-02-06 17:01:00,30.0,18.0,-100.00,NNE,20,3.0,4.0,59,-99.99,,,-99.99,,2013-02-06 22:01:00,
2013-02-06 17:11:00,31.0,19.0,-100.00,NNE,30,2.0,4.0,59,-99.99,,,-99.99,,2013-02-06 22:11:00,
2013-02-06 17:21:00,31.0,19.0,-100.00,NE,45,1.0,4.0,59,-99.99,,,-99.99,,2013-02-06 22:21:00,
2013-02-06 17:32:00,31.0,18.0,-100.00,NE,35,1.0,4.0,58,-99.99,,,-99.99,,2013-02-06 22:32:00,
2013-02-06 17:42:00,30.0,18.0,-100.00,North,5,2.0,4.0,58,-99.99,,,-99.99,,2013-02-06 22:42:00,
2013-02-06 17:52:00,30.0,17.0,-100.00,ESE,105,0.0,2.0,59,-99.99,,,-99.99,,2013-02-06 22:52:00,
2013-02-06 18:01:00,29.0,17.0,-100.00,East,90,1.0,3.0,60,-99.99,,,-99.99,,2013-02-06 23:01:00,
2013-02-06 18:11:00,28.0,17.0,-100.00,SSE,150,1.0,3.0,61,-99.99,,,-99.99,,2013-02-06 23:11:00,
2013-02-06 18:21:00,28.0,17.0,-100.00,South,175,1.0,2.0,63,-99.99,,,-99.99,,2013-02-06 23:21:00,
2013-02-06 18:32:00,27.0,17.0,-100.00,South,180,1.0,3.0,63,-99.99,,,-99.99,,2013-02-06 23:32:00,
2013-02-06 18:42:00,27.0,17.0,-100.00,SSE,160,1.0,2.0,64,-99.99,,,-99.99,,2013-02-06 23:42:00,
2013-02-06 18:52:00,27.0,17.0,-100.00,East,80,0.0,4.0,64,-99.99,,,-99.99,,2013-02-06 23:52:00,
2013-02-06 19:02:00,27.0,18.0,-100.00,SSW,200,1.0,3.0,67,-99.99,,,-99.99,,2013-02-07 00:02:00,
2013-02-06 19:11:00,28.0,19.0,-100.00,WNW,290,1.0,3.0,69,-99.99,,,-99.99,,2013-02-07 00:11:00,
2013-02-06 19:21:00,27.0,19.0,-100.00,SW,215,2.0,4.0,70,-99.99,,,-99.99,,2013-02-07 00:21:00,
2013-02-06 19:32:00,27.0,19.0,-100.00,South,180,2.0,5.0,72,-99.99,,,-99.99,,2013-02-07 00:32:00,
2013-02-06 19:42:00,26.0,19.0,-100.00,SSW,195,2.0,6.0,74,-99.99,,,-99.99,,2013-02-07 00:42:00,
2013-02-06 19:52:00,26.0,19.0,-100.00,SSW,195,2.0,6.0,74,-99.99,,,-99.99,,2013-02-07 00:52:00,
2013-02-06 20:01:00,25.0,19.0,-100.00,WNW,290,2.0,4.0,77,-99.99,,,-99.99,,2013-02-07 01:01:00,
2013-02-06 20:11:00,25.0,19.0,-100.00,South,185,4.0,5.0,78,-99.99,,,-99.99,,2013-02-07 01:11:00,
2013-02-06 20:21:00,24.0,19.0,-100.00,SSW,195,2.0,4.0,79,-99.99,,,-99.99,,2013-02-07 01:21:00,
2013-02-06 20:32:00,24.0,19.0,-100.00,South,190,2.0,4.0,80,-99.99,,,-99.99,,2013-02-07 01:32:00,
2013-02-06 20:42:00,23.0,18.0,-100.00,NNE,15,0.0,2.0,81,-99.99,,,-99.99,,2013-02-07 01:42:00,
2013-02-06 20:52:00,23.0,18.0,-100.00,South,190,2.0,4.0,82,-99.99,,,-99.99,,2013-02-07 01:52:00,
2013-02-06 21:01:00,23.0,18.0,-100.00,South,185,1.0,4.0,83,-99.99,,,-99.99,,2013-02-07 02:01:00,
2013-02-06 21:11:00,22.0,18.0,-100.00,ENE,65,0.0,1.0,83,-99.99,,,-99.99,,2013-02-07 02:11:00,
2013-02-06 21:21:00,22.0,18.0,-100.00,SSW,195,1.0,2.0,85,-99.99,,,-99.99,,2013-02-07 02:21:00,
2013-02-06 21:32:00,22.0,18.0,-100.00,South,185,2.0,6.0,85,-99.99,,,-99.99,,2013-02-07 02:32:00,
2013-02-06 21:41:00,22.0,18.0,-100.00,South,185,2.0,6.0,85,-99.99,,,-99.99,,2013-02-07 02:41:00,
2013-02-06 21:51:00,22.0,18.0,-100.00,South,185,2.0,6.0,85,-99.99,,,-99.99,,2013-02-07 02:51:00,
2013-02-06 22:02:00,21.0,18.0,-100.00,ENE,75,0.0,1.0,87,-99.99,,,-99.99,,2013-02-07 03:02:00,
2013-02-06 22:11:00,21.0,18.0,-100.00,SE,145,0.0,5.0,88,-99.99,,,-99.99,,2013-02-07 03:11:00,
2013-02-06 22:21:00,21.0,19.0,-100.00,SSW,195,3.0,4.0,88,-99.99,,,-99.99,,2013-02-07 03:21:00,
2013-02-06 22:32:00,22.0,19.0,-100.00,ENE,60,0.0,4.0,89,-99.99,,,-99.99,,2013-02-07 03:32:00,
2013-02-06 22:42:00,21.0,19.0,-100.00,NE,40,0.0,1.0,89,-99.99,,,-99.99,,2013-02-07 03:42:00,
2013-02-06 22:52:00,21.0,19.0,-100.00,South,190,2.0,3.0,89,-99.99,,,-99.99,,2013-02-07 03:52:00,
2013-02-06 23:01:00,22.0,19.0,-100.00,SSE,155,0.0,2.0,89,-99.99,,,-99.99,,2013-02-07 04:01:00,
2013-02-06 23:11:00,21.0,19.0,-100.00,SW,215,1.0,2.0,90,-99.99,,,-99.99,,2013-02-07 04:11:00,
2013-02-06 23:22:00,22.0,19.0,-100.00,South,170,0.0,2.0,90,-99.99,,,-99.99,,2013-02-07 04:22:00,
2013-02-06 23:32:00,21.0,19.0,-100.00,ESE,120,0.0,1.0,90,-99.99,,,-99.99,,2013-02-07 04:32:00,
2013-02-06 23:41:00,20.0,18.0,-100.00,NNE,25,0.0,2.0,90,-99.99,,,-99.99,,2013-02-07 04:41:00,
2013-02-06 23:53:00,20.0,18.0,-100.00,NE,40,0.0,1.0,90,-99.99,,,-99.99,,2013-02-07 04:53:00,